View from above orbital plane
|
View from above satellite
|
Ground track
|
The orbit data is extracted from the following two-line orbital elements,
1 27601U 02056E 21055.34184809 -.00000060 00000-0 -67453-5 0 9997
2 27601 98.2019 83.7919 0071084 246.7331 123.0779 14.31991150950748
Epoch (UTC): | 24 February 2021 08:12:15 |
Eccentricity: | 0.0071084 |
inclination: | 98.2019° |
perigee height: | 734 km |
apogee height: | 836 km |
right ascension of ascending node: | 83.7919° |
argument of perigee: | 246.7331° |
revolutions per day: | 14.31991150 |
mean anomaly at epoch: | 123.0779° |
orbit number at epoch: | 95074 |
The dashed part of the orbit path shows where the satellite is in the earth's shadow,
|
|